Hourly Data Report for May 23, 2021

TORONTO CITY
ONTARIO
Current Station Operator: ECCC - MSC

43°40'00.000" N
79°24'00.000" W
112.50 m
6158355
71508
XTO

Download Data

Hourly Data (May 2021)
Hourly Data Report for May 23, 2021
TIME
LST
Temp Definition
°C
Dew Point Definition
°C
Rel Hum Definition
%
Precip. Amount Definition
mm

Wind Dir Definition
10's deg

Wind Spd Definition
km/h
Visibility Definition
km
Stn Press Definition
kPa
Hmdx Definition


Wind Chill Definition


Weather Definition


00:00 21.1 17.2 78 0.0       100.49 27   LegendNANA
01:00 21.4 17.7 80 0.0       100.44 27   LegendNANA
02:00 21.3 17.3 78 0.0       100.37 27   LegendNANA
03:00 20.8 17.0 79 0.0       100.33 26   LegendNANA
04:00 20.6 16.8 79 0.0       100.33 26   LegendNANA
05:00 19.8 16.6 82 0.0       100.30     LegendNANA
06:00 20.6 17.1 80 0.0       100.31 26   LegendNANA
07:00 23.0 17.4 71 0.0       100.31 29   LegendNANA
08:00 24.6 17.5 65 0.0       100.30 30   LegendNANA
09:00 25.1 17.9 64 0.0       100.35 31   LegendNANA
10:00 23.3 17.7 71 0.0       100.43 29   LegendNANA
11:00 23.1 16.6 67 0.0       100.48 28   LegendNANA
12:00 22.8 15.5 63 0.0       100.50 27   LegendNANA
13:00 21.4 14.4 65 0.0       100.54 25   LegendNANA
14:00 22.6 13.7 57 0.0       100.53 26   LegendNANA
15:00 23.5 12.1 49 0.0       100.54 26   LegendNANA
16:00 22.5 10.2 46 0.0       100.58     LegendNANA
17:00 21.8 8.8 43 0.0       100.60     LegendNANA
18:00 21.8 7.9 41 0.0       100.64     LegendNANA
19:00 20.9 7.2 41 0.0       100.71     LegendNANA
20:00 19.0 9.7 55 0.0       100.79     LegendNANA
21:00 17.8 8.5 54 0.0       100.85     LegendNANA
22:00 17.5 8.0 54 0.0       100.92     LegendNANA
23:00 17.0 7.4 53 0.0       100.94     LegendNANA

Notes on Data Quality.

Legend

  • E = Estimated
  • M = Missing
  • NA = Not Available*
  • [empty] = Indicates an unobserved value
Date modified: